This demonstration page uses our WeatherBlox Daily Observations layout. Learn more.

Left ArrowRight Arrow

34.16533, -84.80231

Hourly Observations for June 2, 2019

Temp ( °F °C ) Dew Point ( °F °C ) Humidity (%) Winds ( mph kmh ) Pressure ( in mb ) Visibility ( mi km ) Precip ( " mm )
12:53 am 00:53 Clear 66 18.9 59 15 78 78 Calm 29.87 1011 10 16 0.00 0.00
1:53 am 01:53 Clear 65 18.3 59 15 81 81 Calm 29.85 1011 10 16 0.00 0.00
2:53 am 02:53 Clear 62 16.7 58 14.4 86 86 Calm 29.84 1011 10 16 0.00 0.00
3:53 am 03:53 Clear 61 16.1 58 14.4 90 90 Calm 29.85 1011 10 16 0.00 0.00
4:53 am 04:53 Clear 59 15 57 13.9 93 93 Calm 29.86 1011 10 16 0.00 0.00
5:53 am 05:53 Clear 58 14.4 57 13.9 97 97 Calm 29.87 1012 9 14 0.00 0.00
6:53 am 06:53 Sunny 58 14.4 57 13.9 97 97 Calm 29.88 1012 7 11 0.00 0.00
7:53 am 07:53 Sunny 64 17.8 60 15.6 87 87 Calm 29.90 1013 10 16 0.00 0.00
8:53 am 08:53 Sunny 69 20.6 60 15.6 73 73 Calm 29.91 1013 10 16 0.00 0.00
9:53 am 09:53 Sunny 75 23.9 62 16.7 64 64 Calm 29.91 1013 10 16 0.00 0.00
10:53 am 10:53 Sunny 80 26.7 63 17.2 56 56 Calm 29.91 1013 10 16 0.00 0.00
11:53 am 11:53 Sunny 83 28.3 61 16.1 48 48 VRB 6 9 29.91 1013 10 16 0.00 0.00
12:53 pm 12:53 Sunny 84 28.9 62 16.7 48 48 Calm 29.90 1012 10 16 0.00 0.00
1:53 pm 13:53 Mostly Sunny 87 30.6 62 16.7 43 43 N 8 13 29.88 1012 10 16 0.00 0.00
2:53 pm 14:53 Mostly Sunny 88 31.1 61 16.1 40 40 VRB 5 7 29.86 1011 10 16 0.00 0.00
3:53 pm 15:53 undefined 87 30.6 62 16.7 43 43 VRB 3 6 29.85 1011 10 16 0.00 0.00
4:53 pm 16:53 Mostly Sunny 89 31.7 60 15.6 38 38 Calm 29.83 1010 10 16 0.00 0.00
5:53 pm 17:53 Mostly Cloudy 88 31.1 61 16.1 40 40 undefined N/A 29.85 1011 10 16 0.00 0.00
6:53 pm 18:53 Mostly Cloudy 77 25 64 17.8 64 64 SE 5 7 29.87 1012 10 16 0.00 0.00
7:13 pm 19:13 Partly Cloudy with Nearby Thunderstorms 77 25 66 18.9 69 69 Calm 29.87 1011 10 16 0.00 0.03
7:28 pm 19:28 Partly Cloudy 77 25 65 18.3 66 66 ESE 3 6 29.86 1011 10 16 0.00 0.03
7:53 pm 19:53 Mostly Cloudy 76 24.4 65 18.3 69 69 S 5 7 29.87 1011 10 16 0.00 0.03
8:53 pm 20:53 Mostly Cloudy 73 22.8 65 18.3 76 76 S 5 7 29.88 1012 10 16 0.00 0.00
9:53 pm 21:53 Mostly Clear 71 21.7 66 18.9 84 84 Calm 29.88 1012 10 16 0.00 0.00
10:53 pm 22:53 Clear 69 20.6 65 18.3 87 87 NNE 3 6 29.88 1012 10 16 0.00 0.00
11:53 pm 23:53 Clear 67 19.4 64 17.8 91 91 Calm 29.89 1012 10 16 0.00 0.00

Powered by AerisWeather